Home   Weather   Fairfield Mountains   Past weeks
Flag for USA

Past Weather in Fairfield Mountains, North Carolina, USA — Yesterday and Last 2 Weeks

Now
44 °F

Sunny.


Feels Like: 38 °F
Forecast: 52 / 37 °F
Wind: 12 mph from North

Location: Asheville Regional Airport

Current Time: Dec 15, 2019 at 10:37:17 am

Latest Report: Dec 15, 2019 at 9:54 am


Visibility: 10 mi

Pressure: 30.09 "Hg

Humidity: 71%

Dew Point: 35 °F

Location of Fairfield MountainsLocation

Past Weather in Fairfield Mountains — Graph

°F

Fairfield Mountains Temperature Yesterday

Maximum temperature yesterday: 51 °F (at 12:54 pm)
Minimum temperature yesterday: 36 °F (at 9:54 pm)
Average temperature yesterday: 44 °F

High & Low Weather Summary for the Past Weeks

 TemperatureHumidityPressure
High65 °F (Dec 1, 12:54 pm)97% (Dec 13, 3:32 pm)30.62 "Hg (Dec 13, 3:32 pm)
Low23 °F (Dec 12, 6:54 am)17% (Dec 5, 3:54 pm)29.45 "Hg (Dec 1, 1:54 pm)
Average42 °F71%30.02 "Hg
* Reported Nov 30 8:54 am — Dec 15 8:54 am, Fairfield Mountains. Weather by CustomWeather, © 2019

Note: Actual official high and low records may vary slightly from our data, if they occured in-between our weather recording intervals... More about our weather records

Fairfield Mountains Weather History for the Previous 24 Hours

Scroll right to see more
 ConditionsComfort  
Time TempWeatherWind HumidityBarometerVisibility
8:54 am
Sun, Dec 15
41 °FSunny.9 mph76%30.07 "Hg10 mi
7:54 am31 °FSunny.No wind89%30.06 "Hg10 mi
6:54 am30 °FClear.No wind89%30.03 "Hg10 mi
5:54 am31 °FClear.3 mph89%30.01 "Hg10 mi
4:54 am32 °FClear.No wind85%29.96 "Hg10 mi
4:35 am31 °FIce fog.No wind89%29.94 "Hg2 mi
3:54 am31 °FClear.No wind89%29.94 "Hg10 mi
3:32 am31 °FIce fog.No wind89%29.93 "Hg4 mi
2:54 am33 °FClear.No wind85%29.93 "Hg10 mi
1:54 am36 °FClear.3 mph85%29.90 "Hg10 mi
12:54 am37 °FClear.9 mph82%29.87 "Hg10 mi
11:54 pm
Sat, Dec 14
38 °FPassing clouds.12 mph83%29.87 "Hg10 mi
10:54 pm36 °FClear.3 mph85%29.87 "Hg10 mi
9:54 pm36 °FClear.No wind85%29.84 "Hg10 mi
8:54 pm39 °FClear.6 mph82%29.83 "Hg10 mi
7:54 pm39 °FClear.5 mph82%29.79 "Hg10 mi
6:54 pm41 °FPassing clouds.6 mph80%29.77 "Hg10 mi
5:54 pm41 °FPassing clouds.6 mph80%29.74 "Hg10 mi
4:54 pm45 °FPartly sunny.9 mph68%29.70 "Hg10 mi
3:54 pm46 °FPartly sunny.13 mph61%29.67 "Hg10 mi
2:54 pm47 °FPartly sunny.13 mph61%29.63 "Hg10 mi
1:54 pm50 °FOvercast.13 mph57%29.61 "Hg10 mi
12:54 pm51 °FPartly sunny.18 mph56%29.59 "Hg10 mi
11:54 am50 °FPartly sunny.22 mph61%29.58 "Hg10 mi
10:54 am50 °FMostly cloudy.15 mph68%29.59 "Hg10 mi
10:34 am48 °FPartly sunny.14 mph74%29.62 "Hg10 mi
Weather by CustomWeather, © 2019

See weather overview

Advertising